Showing default

KSM1-B, 46914

Orbit data source: Space-Track

KSM1-B, 46914 is a payload satellite owned by Kleos Space (LU) in LEO that was launched on Sat, 07 Nov 2020 UTC via a PSLV-DL launch vehicle from the Sirharikota (SRI). Payload-class satellites include a variety of spacecraft equipped with specific instruments for various scientific and technological missions. These include communications satellites like Starlink; space stations such as the ISS; scientific satellites like the Hubble; Earth observation satellites from companies like Planet Labs, Umbra, and HawkEye 360; GPS; miniature CubeSats for education and research; and military/defense satellites.

Loading next visibility...
Identifier
46914, 2020-081K
Orbit
LEO
Country
Flag of LULU / LUXE
Related business
Manufacturer
GOMSpace
Mission
Operational Commercial Sigint
Bus & Motor
CUBESAT 6U, Unknown motor
Mass
~10 kg wet, ~10 kg dry
Launch date (UTC)
2020-11-07 (6 years ago)
Launch vehicle
PSLV-DL
Launch site
Sirharikota (SRI)
Object type
Payload
Rocket body
Debris
Shape & HBR
Box, 1.0 m
Radar Cross Section
0.080 m², Medium (>0.1 m² and < 1m²)

Expand to show TLE details & history
Last TLE update: 1 day ago

TLE from 1 day ago
0 KSM1-B
1 46914U 20081K   26172.42198270  .00006130  00000-0  24679-3 0  9997
2 46914  36.9026  42.5037 0006657 310.1231  49.8934 15.24559582312838
Epoch: 2026-06-21T10:07Z
TLE epoch observation values (Epoch: 2026-06-21T10:07:39.305Z)
Latitude
-0.00001°
Longitude
-19.03257°
Altitude
488.272 km
Speed
7.625 km/s
True Right ascension
02h 50m 00s
True Declination
0° 00' 00"
Sunlit
Object was in daylight at epoch
Visualization orbit readout
Latitude
Unknown
Longitude
Unknown
Altitude
Unknown
Speed
Unknown
Apparent Right ascension
Unknown
Apparent Declination
Unknown
Sunlit
N/A
Visualization observer readout
Local Sidereal Time
21:46:56
Azimuth
Unknown
Elevation
Unknown
Doppler factor
Unknown
Orbital elements
Apogee altitude
499.632 km
Perigee altitude
490.481 km
Semi-major axis
6,873.194 km
Eccentricity
0.00067
Inclination
36.9026°
RAAN
42.5037°
Arg. of periapsis
310.1231°
True anomaly
49.95178°
Mean anomaly
49.8934°
Eccentric anomaly
49.92259°
Mean motion
3.80895 °/min
Orbital period
94.51 mins
BSTAR
0.00024679
Loading maneuver chart data...
Computing Atmospheric mass density...
Loading historical data...
Loading historical data...
Loading historical data...
Loading historical data...
Loading historical data...
Loading historical data...
Loading historical data...

Documentation

Showing up to 5 results
|